RH
28 29 29 31 31 28 26 22 29 34 34 40 29 68 90 78 41 40 36 40 40 47 49 26 10 12 20 32 61 71 91 94
26 26 23 28 32 32 32 26 25 31 33 34 33 29 63 82 61 46 40 38 39 46 50 39 15 13 21 42 61 73 82 93
20 25 23 26 30 34 34 31 28 27 28 29 29 32 56 77 83 54 43 41 38 44 49 42 18 18 23 49 62 72 81 93
23 22 20 26 24 31 33 34 30 30 29 31 31 36 61 92 76 51 48 42 40 42 45 33 17 32 50 56 73 82 84 94
22 21 20 25 28 25 30 37 34 32 32 32 32 31 50 54 50 51 51 44 41 44 38 23 18 56 60 72 76 85 91 88
41 31 35 31 30 28 30 36 36 36 33 34 32 30 50 70 73 60 47 46 39 42 36 16 26 67 68 81 84 88 92 94
72 54 50 33 31 30 32 34 37 35 34 32 30 29 50 64 66 51 50 46 40 39 31 17 31 46 64 82 84 88 88 87
77 76 54 42 35 30 31 32 36 32 28 26 26 40 56 74 60 49 47 45 40 40 22 19 41 51 60 70 80 88 88 87
83 81 71 51 38 34 39 39 41 28 27 32 56 57 70 53 51 42 47 45 42 39 17 23 50 72 79 84 88 91 86 89
99 96 76 58 53 46 42 46 43 49 35 68 78 72 54 52 47 41 44 44 43 41 17 33 57 65 79 92 99 98 98 100
91 74 67 62 57 57 47 50 47 50 55 70 90 72 58 58 43 36 45 45 45 37 18 30 50 70 81 92 93 100 98 100
83 76 72 68 61 56 58 58 57 72 70 90 89 74 67 62 43 41 47 51 49 29 20 24 34 61 91 87 100 100 100 100
93 90 95 95 72 69 66 67 77 84 94 95 98 87 71 66 45 45 48 57 53 25 20 23 33 60 95 96 100 100 100 99
86 89 96 93 97 83 80 80 85 82 89 98 100 98 86 68 46 46 45 55 55 24 20 24 30 51 98 100 99 100 100 99
81 92 92 98 99 100 94 96 92 98 97 94 96 98 97 69 46 45 42 51 59 29 22 29 33 44 91 100 100 99 100 100
87 84 89 96 100 99 100 97 100 93 100 96 99 99 99 80 61 55 58 58 64 32 23 27 33 39 80 99 100 100 99 100
88 92 90 93 100 100 98 100 98 100 100 91 99 100 100 92 73 66 76 73 70 51 27 28 31 33 77 94 98 100 100 99
83 86 87 85 97 100 100 100 100 100 99 98 99 88 98 96 98 84 76 72 69 74 52 30 33 37 66 83 99 100 99 99
86 83 82 82 89 99 99 100 96 99 99 100 91 100 100 94 97 91 76 73 83 79 76 40 41 43 66 98 96 99 100 100
Wind_Speed
35 36 34 33 30 37 39 48 40 38 35 35 31 29 30 30 34 30 25 21 18 17 17 18 19 20 21 25 27 26 28 27
40 40 39 39 36 36 37 44 48 44 41 42 39 41 36 35 34 33 27 23 20 19 20 21 19 20 20 25 27 29 30 29
42 49 38 39 40 37 35 38 43 43 42 38 40 41 35 37 31 29 28 25 22 21 22 23 21 22 22 27 29 31 31 33
36 40 44 35 38 43 38 36 37 37 41 41 36 37 35 35 29 27 30 25 23 21 24 25 23 22 23 28 27 29 29 32
30 36 37 37 35 43 45 34 36 38 39 40 37 36 34 22 29 28 28 25 23 22 25 25 24 20 24 28 28 29 29 30
26 30 32 30 34 36 42 35 33 34 39 36 37 35 36 32 28 26 28 27 23 23 25 25 22 21 27 28 28 28 29 29
24 26 28 24 28 28 39 38 32 34 35 36 37 35 35 28 27 28 30 28 24 23 25 23 22 22 27 27 26 26 26 30
21 20 23 19 22 28 30 37 30 32 33 32 33 34 33 33 27 29 29 27 25 24 25 22 20 21 25 29 28 28 25 25
23 16 12 16 20 21 26 28 27 31 32 29 33 33 32 29 28 28 29 27 26 25 22 22 21 22 25 28 29 31 31 33
19 23 11 13 13 14 22 29 28 24 31 33 35 31 32 28 28 28 27 29 24 24 20 20 20 25 27 29 31 32 38 33
13 17 16 16 14 13 21 26 31 28 33 43 29 31 28 29 28 25 28 27 23 22 20 19 19 23 26 29 30 33 33 29
16 12 13 17 18 22 23 23 30 32 33 34 31 29 27 30 27 26 27 24 22 20 20 17 18 25 27 27 32 32 28 31
17 11 10 7 18 17 22 22 27 32 38 37 29 29 30 29 28 27 25 25 20 21 21 17 18 19 21 22 24 20 18 22
17 14 9 7 9 14 16 20 26 28 32 30 31 28 32 30 25 26 25 24 20 22 20 14 14 16 19 19 21 21 16 25
16 16 10 4 7 9 17 18 23 27 34 37 46 35 32 31 28 27 24 23 21 21 17 15 14 13 12 17 15 13 22 17
13 13 11 7 2 8 8 11 13 10 17 27 29 37 27 27 26 25 23 20 20 20 17 17 14 11 12 16 16 14 14 18
12 13 14 7 3 3 4 8 14 11 17 19 5 28 19 21 22 24 16 13 17 20 19 18 15 12 11 17 21 15 16 15
11 10 11 14 3 6 8 6 10 12 14 15 16 13 24 19 21 21 20 20 22 22 22 21 17 13 14 12 14 15 14 13
11 11 10 11 12 3 8 8 11 14 16 24 18 27 27 20 23 24 23 28 26 28 27 24 20 17 16 20 22 22 20 20
Wind_Direction
267 268 266 260 258 247 251 237 232 236 244 243 249 237 235 233 235 242 248 251 262 272 285 287 270 259 253 239 233 230 226 230
264 266 269 262 252 250 246 242 231 232 237 243 245 254 233 231 234 238 246 251 260 269 281 286 274 266 258 240 234 228 230 221
260 258 264 251 251 250 247 248 235 235 236 241 246 243 240 230 234 237 243 250 261 267 280 284 274 263 248 238 234 234 229 221
273 261 257 249 246 241 247 247 238 233 236 233 236 238 238 238 228 235 239 248 260 268 279 282 278 262 247 237 234 229 228 224
275 272 267 267 257 241 238 238 238 234 230 234 235 240 239 236 241 247 241 248 257 268 278 281 280 260 241 231 232 232 229 235
272 270 276 265 249 238 228 236 235 238 236 232 236 237 233 235 240 242 238 245 259 269 278 279 275 251 233 231 232 232 233 239
269 282 273 251 244 233 224 236 237 240 232 227 232 235 231 234 241 234 233 245 259 270 277 277 267 249 232 229 233 228 236 247
260 269 259 249 242 230 228 234 236 232 215 221 228 223 227 233 239 235 237 248 258 270 275 274 258 240 231 230 232 233 235 254
265 270 254 259 248 240 227 223 229 215 213 221 215 218 226 236 232 231 237 248 254 268 276 268 244 234 231 231 232 234 248 255
267 268 279 244 249 239 227 226 226 223 219 211 215 217 231 227 232 233 238 245 254 269 273 255 241 237 237 237 241 244 249 248
320 300 285 254 240 240 225 227 229 232 236 219 218 226 228 230 232 237 236 238 253 266 265 247 242 243 245 247 249 247 260 245
340 297 292 257 239 232 226 226 226 227 215 227 227 227 222 228 233 230 225 233 253 263 258 249 249 250 244 249 251 262 247 242
336 331 296 263 234 230 225 223 224 231 223 224 218 220 223 224 228 222 222 231 249 257 251 247 251 247 246 246 259 253 218 229
325 331 319 271 238 227 218 222 229 230 228 222 218 218 221 226 219 217 224 232 245 254 248 251 259 262 251 250 250 249 242 242
329 330 325 299 222 210 238 230 250 235 239 230 245 221 226 225 217 218 225 235 249 252 249 248 253 254 251 230 251 257 235 218
335 332 337 321 280 255 237 223 211 231 218 240 228 195 211 216 215 221 228 235 252 254 245 248 251 249 241 215 235 247 275 215
352 355 357 343 255 233 250 210 220 228 257 208 245 195 198 222 219 222 223 239 251 265 253 247 247 242 244 218 216 242 250 228
357 1 0 5 344 246 225 229 214 218 237 213 190 223 214 210 219 223 232 239 247 255 264 252 245 234 223 208 212 226 239 239
353 358 7 17 27 4 221 229 215 217 211 209 247 212 193 216 229 222 229 244 250 255 259 252 242 235 219 211 221 216 231 226